weather.gov     
National Weather Service

Miscellaneous Local Product
NWS Homepage
This page is being discontinued on March 12, 2014.
The same data is available at this site. Please update your bookmarks.
Thank you, and we apologize for the inconvenience.
Please send an email to SR-SRH.Webmaster@noaa.gov with any concerns.


Current Version
Previous Version:    01  02  03  04  05  06  07  08  09  10  11  12  13  14  15  16  17  18  19  20  21  22  23  24  25  26  27  28  29  30  
   31  32  33  34  35  36  37  38  39  40  41  42  43  44  45  46  47  48  49  50  51  52  53  54  55  56  57  58  59  60  
[Printable]
282
AXUS43 KGID 232202
MISGRI

GID CWA HOURLY WEATHER ROUNDUP
NATIONAL WEATHER SERVICE HASTINGS NE
400 PM CST SUN NOV 23 2014

NOTE: "FAIR" INDICATES FEW OR NO CLOUDS BELOW 12,000 FEET WITH NO
SIGNIFICANT WEATHER AND/OR OBSTRUCTIONS TO VISIBILITY.

...SOUTH CENTRAL NEBRASKA...

CITY           SKY/WX    TMP DP  RH WIND       PRES   REMARKS
GRAND ISLAND   NOT AVBL
HASTINGS       CLOUDY    44  28  53 N16       29.57R
KEARNEY        CLOUDY    46  19  34 NW25G33   29.60R
ORD            CLOUDY    46  22  38 N20G30    29.58R
YORK           CLOUDY    41  34  75 N13G18    29.55S
AURORA         CLOUDY    43  32  65 N16       29.57R
LEXINGTON      CLOUDY    49  18  28 N32G40    29.61R
HOLDREGE       CLOUDY    47  19  31 N25G36    29.59S
HEBRON         CLOUDY    43  33  67 N15G26    29.54S

...NEBRASKA PANHANDLE...

CITY           SKY/WX    TMP DP  RH WIND       PRES   REMARKS
CHADRON        MOSUNNY   41  20  43 NW24G37   29.77S
ALLIANCE       SUNNY     40  14  34 N33G44    29.74R WCI  28
SCOTTSBLUFF    SUNNY     42  11  28 NW29G39   29.78R
SIDNEY         SUNNY     42  11  28 N30G41    29.74S

...WESTERN AND NORTH CENTRAL NEBRASKA...

CITY           SKY/WX    TMP DP  RH WIND       PRES   REMARKS
VALENTINE      PTSUNNY   44  21  40 NW31G44   29.64R
AINSWORTH      PTSUNNY   42  22  44 NW33G40   29.64R
ONEILL         MOCLDY    45  28  52 NW26G38   29.59R
BROKEN BOW     PTSUNNY   49  19  30 NW37G48   29.60R
IMPERIAL       MOSUNNY   46  10  23 N33G44    29.71R
NORTH PLATTE   SUNNY     48  15  26 N25G35    29.66R
MCCOOK         MOSUNNY   49  13  23 N24G38    29.65R

...EASTERN NEBRASKA...

CITY           SKY/WX    TMP DP  RH WIND       PRES   REMARKS
NORFOLK        CLOUDY    44  29  55 NW26G36   29.55R
SO SIOUX CITY  CLOUDY    45  34  65 NW16G29   29.52R
TEKAMAH        CLOUDY    45  35  68 NW20      29.53R
COLUMBUS       CLOUDY    43  30  61 N15       29.56R
ALBION         CLOUDY    44  28  53 NW29G36   29.55R
OMAHA EPPLEY   CLOUDY    43  35  73 N21G29    29.51R
OFFUTT AFB     LGT RAIN  42  36  79 N24G31    29.49R
MILLARD        LGT RAIN  44  36  73 NW13G18   29.51R
LINCOLN        CLOUDY    44  32  62 N25G33    29.53S
NEBRASKA CITY  RAIN      43  39  87 N25       29.47R
BEATRICE       CLOUDY    42  37  82 N16G22    29.52R
FALLS CITY     CLOUDY    46  38  73 N18G29    29.43R

...NORTHERN KANSAS...

CITY           SKY/WX    TMP DP  RH WIND       PRES   REMARKS
GOODLAND       SUNNY     46  12  25 N28G39    29.71R
HILL CITY      CLOUDY    50  19  29 N28G38    29.63R
NORTON         CLEAR     48  12  23 NW21G30   29.61R
PHILLIPSBURG   SUNNY     52  25  35 NW20G29   29.60S
SMITH CENTER   SUNNY     45  27  49 N20G28    29.59R
BELOIT         SUNNY     45  36  70 N16G23    29.55R
HAYS           CLOUDY    46  25  42 N25G31    29.60R
RUSSELL        CLOUDY    45  33  63 N22G35    29.57R
CONCORDIA      CLOUDY    43  35  73 N23G31    29.53S
SALINA         CLOUDY    43  38  82 N22       29.54R
TOPEKA         HVY RAIN  46  44  93 NW13      29.43R FOG




U.S. Dept. of Commerce
NOAA National Weather Service
1325 East West Highway
Silver Spring, MD 20910
E-mail: w-nws.webmaster@noaa.gov
Page last modified: May 16, 2007
NATIONAL WEATHER SERVICE: for Safety, for Work, for Fun - FOR LIFE